| time (UTC) | temp F | wind direction | speed MPH | gust MPH | rain 1hr in | rain 24hr in | rain mn in | humidity % | barometer mb |
| 20260505173654 | 52 | 6 | 2.0 | 6.0 | 0.00 | 0.06 | 0.03 | 90 | 1007.4 |
| 20260505173148 | 51 | 350 | 3.0 | 7.0 | 0.00 | 0.06 | 0.03 | 90 | 1007.4 |
| 20260505172734 | 51 | 67 | 2.0 | 7.0 | 0.00 | 0.06 | 0.03 | 90 | 1007.4 |
| 20260505172223 | 52 | 319 | 3.0 | 7.0 | 0.00 | 0.06 | 0.03 | 90 | 1007.3 |
| 20260505171723 | 52 | 340 | 3.0 | 6.0 | 0.00 | 0.06 | 0.03 | 90 | 1007.3 |
| 20260505171715 | 52 | 348 | 3.0 | 7.0 | 0.00 | 0.06 | 0.03 | 90 | 1007.3 |
| 20260505170701 | 52 | 356 | 2.0 | 8.0 | 0.00 | 0.06 | 0.03 | 90 | 1007.4 |
| 20260505170154 | 52 | 324 | 3.0 | 8.0 | 0.00 | 0.06 | 0.03 | 90 | 1007.4 |
| 20260505165650 | 52 | 340 | 3.0 | 8.0 | 0.00 | 0.06 | 0.03 | 90 | 1007.4 |
| 20260505165144 | 52 | 20 | 3.0 | 8.0 | 0.00 | 0.06 | 0.03 | 90 | 1007.5 |
| 20260505164731 | 52 | 280 | 3.0 | 7.0 | 0.00 | 0.06 | 0.03 | 90 | 1007.5 |
| 20260505164223 | 52 | 319 | 3.0 | 8.0 | 0.00 | 0.06 | 0.03 | 90 | 1007.5 |
| 20260505163714 | 52 | 17 | 3.0 | 8.0 | 0.00 | 0.06 | 0.03 | 90 | 1007.5 |
| 20260505163204 | 52 | 351 | 2.0 | 6.0 | 0.00 | 0.06 | 0.03 | 90 | 1007.5 |
| 20260505162658 | 52 | 346 | 2.0 | 6.0 | 0.00 | 0.06 | 0.03 | 90 | 1007.5 |
| 20260505162150 | 52 | 356 | 2.0 | 6.0 | 0.00 | 0.06 | 0.03 | 90 | 1007.6 |
| 20260505161641 | 52 | 305 | 2.0 | 5.0 | 0.00 | 0.06 | 0.03 | 90 | 1007.6 |
| 20260505161136 | 52 | 6 | 3.0 | 7.0 | 0.00 | 0.06 | 0.03 | 90 | 1007.6 |
| 20260505160734 | 52 | 29 | 2.0 | 6.0 | 0.00 | 0.06 | 0.03 | 90 | 1007.7 |
| 20260505160630 | 52 | 342 | 3.0 | 7.0 | 0.00 | 0.06 | 0.03 | 89 | 1007.6 |
| 20260505153141 | 52 | 346 | 2.0 | 7.0 | 0.00 | 0.06 | 0.03 | 90 | 1007.8 |
| 20260505152627 | 52 | 42 | 3.0 | 8.0 | 0.00 | 0.06 | 0.03 | 90 | 1007.8 |
| 20260505152215 | 52 | 11 | 2.0 | 8.0 | 0.00 | 0.06 | 0.03 | 90 | 1007.9 |
| 20260505151705 | 52 | 328 | 2.0 | 6.0 | 0.00 | 0.06 | 0.03 | 90 | 1007.9 |
| 20260505151158 | 52 | 322 | 3.0 | 8.0 | 0.00 | 0.06 | 0.03 | 90 | 1007.9 |
| 20260505150650 | 52 | 351 | 3.0 | 8.0 | 0.00 | 0.06 | 0.03 | 90 | 1008.0 |
| 20260505150140 | 52 | 328 | 3.0 | 8.0 | 0.00 | 0.06 | 0.03 | 90 | 1008.0 |
| 20260505140614 | 51 | 28 | 3.0 | 8.0 | 0.00 | 0.06 | 0.03 | 91 | 1008.3 |
| 20260505130120 | 51 | 1 | 4.0 | 10.0 | 0.00 | 0.06 | 0.03 | 92 | 1008.7 |
| 20260505130113 | 51 | 338 | 4.0 | 10.0 | 0.00 | 0.06 | 0.03 | 92 | 1008.7 |
| 20260505124557 | 51 | 290 | 3.0 | 9.0 | 0.00 | 0.06 | 0.03 | 93 | 1008.8 |
| 20260505124036 | 51 | 336 | 3.0 | 8.0 | 0.00 | 0.06 | 0.03 | 93 | 1008.8 |
| 20260505123524 | 51 | 27 | 3.0 | 8.0 | 0.00 | 0.06 | 0.03 | 92 | 1008.8 |
| 20260505123117 | 51 | 13 | 3.0 | 7.0 | 0.00 | 0.06 | 0.03 | 92 | 1008.8 |
| 20260505122619 | 51 | 356 | 2.0 | 7.0 | 0.00 | 0.06 | 0.03 | 93 | 1008.8 |
| 20260505122058 | 51 | 27 | 2.0 | 8.0 | 0.00 | 0.06 | 0.03 | 93 | 1008.8 |
| 20260505121550 | 51 | 6 | 4.0 | 9.0 | 0.00 | 0.06 | 0.03 | 93 | 1008.8 |
| 20260505121039 | 51 | 12 | 4.0 | 11.0 | 0.00 | 0.06 | 0.03 | 93 | 1008.8 |
| 20260505120532 | 51 | 6 | 5.0 | 11.0 | 0.00 | 0.06 | 0.03 | 93 | 1008.8 |
| 20260505120020 | 51 | 337 | 6.0 | 12.0 | 0.00 | 0.06 | 0.03 | 93 | 1008.8 |
| 20260505115512 | 51 | 28 | 5.0 | 12.0 | 0.00 | 0.06 | 0.03 | 94 | 1008.8 |
| 20260505115008 | 51 | 356 | 4.0 | 12.0 | 0.00 | 0.06 | 0.03 | 94 | 1008.8 |
| 20260505114601 | 51 | 1 | 4.0 | 9.0 | 0.00 | 0.06 | 0.03 | 94 | 1008.9 |
| 20260505114555 | 51 | 349 | 4.0 | 12.0 | 0.00 | 0.06 | 0.03 | 94 | 1008.9 |
| 20260505113534 | 51 | 23 | 5.0 | 11.0 | 0.00 | 0.06 | 0.03 | 94 | 1008.9 |
| 20260505113026 | 50 | 6 | 5.0 | 11.0 | 0.00 | 0.06 | 0.03 | 93 | 1009.0 |
| 20260505112523 | 50 | 6 | 4.0 | 9.0 | 0.00 | 0.06 | 0.03 | 94 | 1009.1 |
| 20260505112518 | 50 | 346 | 4.0 | 10.0 | 0.00 | 0.06 | 0.03 | 94 | 1009.0 |
| 20260505111501 | 50 | 345 | 3.0 | 9.0 | 0.00 | 0.06 | 0.03 | 94 | 1009.1 |
| 20260505111050 | 51 | 339 | 3.0 | 7.0 | 0.00 | 0.06 | 0.03 | 94 | 1009.1 |
| 20260505110553 | 50 | 326 | 3.0 | 9.0 | 0.00 | 0.06 | 0.03 | 94 | 1009.2 |
| 20260505101509 | 49 | 42 | 3.0 | 8.0 | 0.00 | 0.06 | 0.03 | 94 | 1009.3 |
| 20260505101012 | 49 | 25 | 3.0 | 8.0 | 0.00 | 0.06 | 0.03 | 93 | 1009.3 |
| 20260505100449 | 49 | 343 | 3.0 | 8.0 | 0.00 | 0.06 | 0.03 | 93 | 1009.3 |
| 20260505095949 | 49 | 34 | 3.0 | 7.0 | 0.00 | 0.06 | 0.03 | 93 | 1009.4 |
| 20260505095540 | 49 | 13 | 4.0 | 8.0 | 0.00 | 0.06 | 0.03 | 93 | 1009.4 |
| 20260505095022 | 49 | 346 | 4.0 | 8.0 | 0.00 | 0.06 | 0.03 | 93 | 1009.4 |
| 20260505094512 | 49 | 6 | 3.0 | 8.0 | 0.00 | 0.06 | 0.03 | 94 | 1009.4 |
| 20260505094005 | 50 | 10 | 2.0 | 7.0 | 0.00 | 0.06 | 0.03 | 94 | 1009.4 |
| 20260505093455 | 50 | 339 | 2.0 | 7.0 | 0.00 | 0.06 | 0.03 | 94 | 1009.4 |
| 20260505092950 | 50 | 356 | 2.0 | 7.0 | 0.00 | 0.06 | 0.03 | 94 | 1009.4 |
| 20260505092946 | 50 | 347 | 1.0 | 5.0 | 0.00 | 0.06 | 0.03 | 94 | 1009.4 |
| 20260505092036 | 50 | 18 | 2.0 | 7.0 | 0.00 | 0.06 | 0.03 | 94 | 1009.4 |
| 20260505091922 | 50 | 337 | 2.0 | 6.0 | 0.00 | 0.06 | 0.03 | 94 | 1009.4 |
| 20260505091009 | 50 | 35 | 2.0 | 7.0 | 0.00 | 0.06 | 0.03 | 94 | 1009.4 |
| 20260505090500 | 49 | 339 | 3.0 | 7.0 | 0.00 | 0.06 | 0.03 | 94 | 1009.4 |
| 20260505085950 | 49 | 19 | 3.0 | 7.0 | 0.00 | 0.06 | 0.03 | 94 | 1009.4 |
| 20260505085442 | 49 | 343 | 3.0 | 7.0 | 0.00 | 0.06 | 0.03 | 94 | 1009.3 |
| 20260505084942 | 49 | 31 | 4.0 | 9.0 | 0.00 | 0.06 | 0.03 | 94 | 1009.3 |
| 20260505084932 | 49 | 332 | 4.0 | 9.0 | 0.00 | 0.06 | 0.03 | 94 | 1009.3 |
| 20260505084025 | 49 | 1 | 4.0 | 9.0 | 0.00 | 0.06 | 0.03 | 94 | 1009.3 |
| 20260505083515 | 49 | 1 | 4.0 | 10.0 | 0.00 | 0.06 | 0.03 | 94 | 1009.4 |
| 20260505083004 | 49 | 328 | 4.0 | 10.0 | 0.00 | 0.06 | 0.03 | 94 | 1009.4 |
| 20260505082859 | 49 | 12 | 4.0 | 8.0 | 0.00 | 0.06 | 0.03 | 94 | 1009.4 |
| 20260505081939 | 49 | 277 | 4.0 | 8.0 | 0.00 | 0.06 | 0.03 | 94 | 1009.3 |
| 20260505081537 | 50 | 345 | 5.0 | 10.0 | 0.00 | 0.06 | 0.03 | 94 | 1009.3 |
| 20260505081026 | 50 | 6 | 4.0 | 13.0 | 0.00 | 0.06 | 0.03 | 94 | 1009.3 |
| 20260505080516 | 50 | 351 | 4.0 | 13.0 | 0.00 | 0.06 | 0.03 | 94 | 1009.2 |
| 20260505080406 | 50 | 335 | 4.0 | 12.0 | 0.00 | 0.06 | 0.03 | 94 | 1009.3 |
| 20260505075502 | 50 | 335 | 4.0 | 7.0 | 0.00 | 0.06 | 0.03 | 94 | 1009.2 |
| 20260505074953 | 50 | 326 | 3.0 | 10.0 | 0.00 | 0.06 | 0.03 | 94 | 1009.3 |
| 20260505074437 | 50 | 341 | 4.0 | 10.0 | 0.00 | 0.06 | 0.03 | 94 | 1009.2 |
| 20260505073937 | 50 | 14 | 5.0 | 9.0 | 0.00 | 0.06 | 0.03 | 94 | 1009.2 |
| 20260505073525 | 50 | 347 | 4.0 | 8.0 | 0.00 | 0.06 | 0.03 | 94 | 1009.3 |
| 20260505073016 | 50 | 328 | 4.0 | 8.0 | 0.00 | 0.06 | 0.03 | 94 | 1009.2 |
| 20260505072509 | 51 | 1 | 4.0 | 8.0 | 0.00 | 0.07 | 0.03 | 94 | 1009.2 |
| 20260505072001 | 51 | 320 | 3.0 | 7.0 | 0.00 | 0.07 | 0.03 | 95 | 1009.2 |
| 20260505071449 | 51 | 1 | 3.0 | 8.0 | 0.00 | 0.07 | 0.03 | 95 | 1009.1 |
| 20260505070935 | 51 | 16 | 5.0 | 11.0 | 0.00 | 0.07 | 0.03 | 95 | 1009.2 |
| 20260505070433 | 51 | 344 | 4.0 | 11.0 | 0.00 | 0.07 | 0.03 | 95 | 1009.1 |
| 20260505070024 | 51 | 337 | 3.0 | 10.0 | 0.00 | 0.07 | 0.03 | 95 | 1009.2 |
| 20260505065512 | 51 | 345 | 3.0 | 10.0 | 0.00 | 0.07 | 0.03 | 95 | 1009.2 |
| 20260505065001 | 51 | 11 | 3.0 | 8.0 | 0.00 | 0.07 | 0.03 | 95 | 1009.3 |
| 20260505064453 | 51 | 6 | 4.0 | 10.0 | 0.00 | 0.07 | 0.03 | 95 | 1009.2 |
| 20260505063943 | 51 | 10 | 4.0 | 10.0 | 0.00 | 0.07 | 0.03 | 95 | 1009.3 |
| 20260505063431 | 51 | 52 | 4.0 | 10.0 | 0.00 | 0.07 | 0.03 | 95 | 1009.3 |
| 20260505063021 | 51 | 14 | 4.0 | 10.0 | 0.00 | 0.07 | 0.03 | 95 | 1009.4 |
| 20260505062913 | 51 | 356 | 3.0 | 7.0 | 0.00 | 0.07 | 0.03 | 95 | 1009.3 |
| 20260505062003 | 51 | 352 | 3.0 | 7.0 | 0.00 | 0.07 | 0.03 | 95 | 1009.3 |
| 20260505061851 | 51 | 1 | 2.0 | 7.0 | 0.00 | 0.07 | 0.03 | 95 | 1009.4 |
| 20260505060945 | 51 | 347 | 2.0 | 6.0 | 0.00 | 0.07 | 0.03 | 95 | 1009.4 |
| 20260505060433 | 51 | 345 | 2.0 | 6.0 | 0.00 | 0.07 | 0.03 | 95 | 1009.3 |
| 20260505060024 | 51 | 1 | 3.0 | 7.0 | 0.00 | 0.07 | 0.03 | 95 | 1009.3 |
| 20260505055513 | 51 | 348 | 4.0 | 9.0 | 0.00 | 0.07 | 0.03 | 95 | 1009.4 |
| 20260505055005 | 51 | 6 | 3.0 | 9.0 | 0.00 | 0.07 | 0.03 | 95 | 1009.4 |
| 20260505054506 | 51 | 343 | 3.0 | 8.0 | 0.01 | 0.07 | 0.03 | 95 | 1009.3 |
| 20260505053945 | 51 | 6 | 4.0 | 8.0 | 0.01 | 0.07 | 0.03 | 95 | 1009.2 |
| 20260505053437 | 51 | 356 | 4.0 | 8.0 | 0.01 | 0.07 | 0.03 | 95 | 1009.3 |
| 20260505052929 | 52 | 19 | 3.0 | 7.0 | 0.01 | 0.07 | 0.03 | 95 | 1009.3 |
| 20260505052520 | 52 | 1 | 3.0 | 9.0 | 0.01 | 0.07 | 0.03 | 95 | 1009.3 |
| 20260505052315 | 52 | 315 | 3.0 | 9.0 | 0.01 | 0.07 | 0.03 | 95 | 1009.2 |
| 20260505051504 | 52 | 6 | 3.0 | 8.0 | 0.01 | 0.07 | 0.03 | 95 | 1009.2 |
| 20260505050957 | 52 | 346 | 4.0 | 8.0 | 0.01 | 0.07 | 0.03 | 95 | 1009.2 |
| 20260505050448 | 52 | 21 | 4.0 | 8.0 | 0.01 | 0.07 | 0.03 | 95 | 1009.1 |
| 20260505041524 | 53 | 12 | 3.0 | 10.0 | 0.00 | 0.06 | 0.02 | 95 | 1009.0 |
| 20260505041016 | 54 | 6 | 3.0 | 10.0 | 0.00 | 0.06 | 0.02 | 95 | 1008.9 |
| 20260505040505 | 54 | 6 | 3.0 | 7.0 | 0.00 | 0.06 | 0.02 | 95 | 1009.0 |
| 20260505040355 | 54 | 350 | 3.0 | 7.0 | 0.00 | 0.06 | 0.02 | 95 | 1009.0 |
| 20260505035446 | 54 | 330 | 3.0 | 8.0 | 0.00 | 0.06 | 0.02 | 94 | 1009.0 |
| 20260505034939 | 54 | 332 | 3.0 | 8.0 | 0.00 | 0.06 | 0.02 | 94 | 1009.0 |
| 20260505034433 | 54 | 340 | 3.0 | 8.0 | 0.00 | 0.06 | 0.02 | 94 | 1009.0 |
| 20260505034024 | 55 | 343 | 3.0 | 7.0 | 0.00 | 0.06 | 0.02 | 94 | 1009.0 |
| 20260505033817 | 55 | 1 | 3.0 | 7.0 | 0.00 | 0.06 | 0.02 | 94 | 1009.0 |
| 20260505033406 | 56 | 336 | 1.0 | 7.0 | 0.00 | 0.06 | 0.02 | 94 | 1009.0 |
| 20260505032901 | 56 | 170 | 0.0 | 0.0 | 0.00 | 0.06 | 0.02 | 95 | 1009.0 |
| 20260505031950 | 56 | 170 | 0.0 | 0.0 | 0.00 | 0.06 | 0.02 | 95 | 1009.0 |
| 20260505031441 | 56 | 170 | 0.0 | 0.0 | 0.00 | 0.06 | 0.02 | 95 | 1009.0 |
| 20260505030934 | 56 | 170 | 0.0 | 2.0 | 0.01 | 0.06 | 0.02 | 95 | 1009.0 |
| 20260505030426 | 56 | 170 | 0.0 | 2.0 | 0.01 | 0.06 | 0.02 | 95 | 1009.0 |
| 20260505030013 | 56 | 170 | 0.0 | 0.0 | 0.01 | 0.06 | 0.02 | 95 | 1009.0 |
| 20260505025754 | 56 | 170 | 0.0 | 0.0 | 0.01 | 0.06 | 0.02 | 95 | 1009.1 |
| 20260505025554 | 56 | 170 | 0.0 | 0.0 | 0.01 | 0.06 | 0.02 | 95 | 1009.1 |
| 20260505025349 | 56 | 170 | 0.0 | 0.0 | 0.01 | 0.06 | 0.02 | 95 | 1009.1 |
| 20260505023936 | 56 | 170 | 0.0 | 0.0 | 0.01 | 0.06 | 0.02 | 94 | 1009.1 |
| 20260505023427 | 56 | 170 | 0.0 | 0.0 | 0.01 | 0.06 | 0.02 | 94 | 1009.1 |
| 20260505023019 | 56 | 170 | 0.0 | 0.0 | 0.01 | 0.06 | 0.02 | 94 | 1009.2 |
| 20260505022810 | 56 | 170 | 0.0 | 0.0 | 0.01 | 0.06 | 0.02 | 94 | 1009.1 |
| 20260505022001 | 56 | 170 | 0.0 | 0.0 | 0.01 | 0.06 | 0.02 | 94 | 1009.1 |
| 20260505021754 | 56 | 170 | 0.0 | 0.0 | 0.01 | 0.06 | 0.02 | 94 | 1009.1 |
| 20260505020941 | 56 | 170 | 0.0 | 0.0 | 0.00 | 0.06 | 0.02 | 94 | 1009.1 |
| 20260505020434 | 56 | 170 | 0.0 | 0.0 | 0.00 | 0.06 | 0.02 | 94 | 1009.2 |
| 20260505015925 | 56 | 170 | 0.0 | 0.0 | 0.00 | 0.06 | 0.02 | 94 | 1009.2 |
| 20260505015518 | 56 | 170 | 0.0 | 0.0 | 0.01 | 0.06 | 0.02 | 94 | 1009.2 |
| 20260505015308 | 56 | 170 | 0.0 | 0.0 | 0.01 | 0.06 | 0.02 | 94 | 1009.2 |
| 20260505014454 | 56 | 170 | 0.0 | 0.0 | 0.01 | 0.06 | 0.02 | 94 | 1009.2 |
| 20260505013945 | 56 | 170 | 0.0 | 0.0 | 0.01 | 0.06 | 0.02 | 94 | 1009.2 |
| 20260505013737 | 56 | 170 | 0.0 | 0.0 | 0.01 | 0.06 | 0.02 | 94 | 1009.2 |
| 20260505012927 | 56 | 170 | 0.0 | 0.0 | 0.01 | 0.06 | 0.02 | 94 | 1009.3 |
| 20260505012420 | 56 | 170 | 0.0 | 0.0 | 0.01 | 0.06 | 0.02 | 94 | 1009.4 |
| 20260505012009 | 56 | 170 | 0.0 | 0.0 | 0.01 | 0.06 | 0.02 | 94 | 1009.5 |
| 20260505011459 | 56 | 170 | 0.0 | 0.0 | 0.01 | 0.06 | 0.02 | 94 | 1009.5 |
| 20260505011252 | 56 | 170 | 0.0 | 0.0 | 0.01 | 0.06 | 0.02 | 94 | 1009.5 |
| 20260505010439 | 56 | 170 | 0.0 | 0.0 | 0.01 | 0.06 | 0.02 | 94 | 1009.4 |
| 20260505010027 | 56 | 170 | 0.0 | 0.0 | 0.01 | 0.06 | 0.02 | 94 | 1009.5 |
| 20260505005829 | 57 | 170 | 0.0 | 0.0 | 0.00 | 0.05 | 0.01 | 94 | 1009.5 |
| 20260505005108 | 57 | 170 | 0.0 | 0.0 | 0.00 | 0.05 | 0.01 | 94 | 1009.5 |
| 20260505004559 | 56 | 170 | 0.0 | 0.0 | 0.00 | 0.05 | 0.01 | 94 | 1009.6 |
| 20260505004051 | 57 | 170 | 0.0 | 0.0 | 0.00 | 0.05 | 0.01 | 94 | 1009.6 |
| 20260505003541 | 57 | 170 | 0.0 | 0.0 | 0.00 | 0.05 | 0.01 | 94 | 1009.7 |
| 20260505003034 | 57 | 170 | 0.0 | 0.0 | 0.00 | 0.05 | 0.01 | 94 | 1009.7 |
| 20260505002524 | 57 | 170 | 0.0 | 0.0 | 0.00 | 0.05 | 0.01 | 94 | 1009.8 |
| 20260505002015 | 57 | 170 | 0.0 | 0.0 | 0.00 | 0.05 | 0.01 | 94 | 1009.8 |
| 20260505001602 | 57 | 170 | 0.0 | 0.0 | 0.00 | 0.05 | 0.01 | 94 | 1009.9 |
| 20260505001052 | 57 | 170 | 0.0 | 0.0 | 0.00 | 0.05 | 0.01 | 94 | 1009.9 |
| 20260505000549 | 57 | 170 | 0.0 | 0.0 | 0.00 | 0.05 | 0.01 | 94 | 1010.0 |
| 20260505000241 | 57 | 170 | 0.0 | 0.0 | 0.00 | 0.05 | 0.01 | 93 | 1010.0 |
| 20260505000138 | 57 | 170 | 0.0 | 0.0 | 0.00 | 0.05 | 0.01 | 94 | 1010.0 |
| 20260504235021 | 57 | 170 | 0.0 | 0.0 | 0.00 | 0.05 | 0.01 | 93 | 1009.9 |
| 20260504234611 | 57 | 170 | 0.0 | 0.0 | 0.00 | 0.05 | 0.01 | 94 | 1010.0 |
| 20260504234058 | 57 | 170 | 0.0 | 0.0 | 0.00 | 0.05 | 0.01 | 94 | 1010.0 |
| 20260504233551 | 57 | 170 | 0.0 | 0.0 | 0.00 | 0.05 | 0.01 | 93 | 1010.0 |
| 20260504233039 | 57 | 170 | 0.0 | 0.0 | 0.01 | 0.05 | 0.01 | 93 | 1010.1 |
| 20260504232536 | 57 | 170 | 0.0 | 0.0 | 0.01 | 0.05 | 0.01 | 93 | 1010.2 |
| 20260504232027 | 57 | 170 | 0.0 | 0.0 | 0.01 | 0.05 | 0.01 | 93 | 1010.2 |
| 20260504231827 | 57 | 170 | 0.0 | 0.0 | 0.01 | 0.05 | 0.01 | 93 | 1010.3 |
| 20260504231106 | 57 | 170 | 0.0 | 0.0 | 0.01 | 0.06 | 0.01 | 93 | 1010.3 |
| 20260504230605 | 57 | 170 | 0.0 | 0.0 | 0.01 | 0.06 | 0.01 | 93 | 1010.4 |
| 20260504230600 | 57 | 170 | 0.0 | 0.0 | 0.01 | 0.06 | 0.01 | 93 | 1010.3 |
| 20260504230058 | 57 | 170 | 0.0 | 0.0 | 0.01 | 0.06 | 0.01 | 93 | 1010.4 |
| 20260504225026 | 57 | 170 | 0.0 | 0.0 | 0.01 | 0.06 | 0.01 | 93 | 1010.4 |
| 20260504224520 | 57 | 170 | 0.0 | 0.0 | 0.01 | 0.06 | 0.01 | 93 | 1010.5 |
| 20260504224118 | 57 | 170 | 0.0 | 0.0 | 0.02 | 0.06 | 0.01 | 92 | 1010.6 |
| 20260504224014 | 57 | 170 | 0.0 | 0.0 | 0.02 | 0.06 | 0.01 | 93 | 1010.5 |
| 20260504223151 | 57 | 170 | 0.0 | 0.0 | 0.02 | 0.05 | 0.00 | 92 | 1010.6 |
| 20260504223147 | 57 | 170 | 0.0 | 0.0 | 0.01 | 0.05 | 0.00 | 92 | 1010.6 |
| 20260504223044 | 57 | 170 | 0.0 | 0.0 | 0.01 | 0.05 | 0.00 | 92 | 1010.6 |
| 20260504221521 | 57 | 170 | 0.0 | 0.0 | 0.02 | 0.05 | 0.00 | 92 | 1010.7 |
| 20260504221012 | 57 | 170 | 0.0 | 0.0 | 0.02 | 0.05 | 0.00 | 92 | 1010.7 |
| 20260504220506 | 57 | 170 | 0.0 | 0.0 | 0.02 | 0.05 | 0.00 | 92 | 1010.7 |
| 20260504220111 | 57 | 170 | 0.0 | 0.0 | 0.02 | 0.05 | 0.05 | 92 | 1010.9 |
| 20260504215554 | 57 | 170 | 0.0 | 0.0 | 0.02 | 0.05 | 0.05 | 92 | 1010.9 |
| 20260504215549 | 57 | 170 | 0.0 | 0.0 | 0.02 | 0.05 | 0.05 | 92 | 1010.9 |
| 20260504214539 | 57 | 170 | 0.0 | 0.0 | 0.02 | 0.05 | 0.05 | 91 | 1010.9 |
| 20260504214034 | 57 | 170 | 0.0 | 0.0 | 0.02 | 0.04 | 0.04 | 91 | 1011.0 |
| 20260504213522 | 57 | 170 | 0.0 | 0.0 | 0.02 | 0.04 | 0.04 | 91 | 1011.0 |
| 20260504213024 | 57 | 170 | 0.0 | 0.0 | 0.02 | 0.04 | 0.04 | 90 | 1011.1 |
| 20260504213017 | 57 | 170 | 0.0 | 0.0 | 0.02 | 0.04 | 0.04 | 91 | 1011.1 |
| 20260504212712 | 57 | 170 | 0.0 | 0.0 | 0.01 | 0.03 | 0.03 | 90 | 1011.1 |
| 20260504212003 | 57 | 170 | 0.0 | 0.0 | 0.01 | 0.03 | 0.03 | 90 | 1011.1 |
| 20260504210947 | 57 | 170 | 0.0 | 0.0 | 0.01 | 0.03 | 0.03 | 90 | 1011.1 |
| 20260504210551 | 57 | 170 | 0.0 | 0.0 | 0.01 | 0.03 | 0.03 | 90 | 1011.1 |
| 20260504210032 | 57 | 170 | 0.0 | 0.0 | 0.00 | 0.02 | 0.03 | 90 | 1011.2 |
| 20260504205527 | 58 | 170 | 0.0 | 0.0 | 0.00 | 0.02 | 0.02 | 90 | 1011.2 |
| 20260504205021 | 58 | 170 | 0.0 | 0.0 | 0.00 | 0.02 | 0.02 | 90 | 1011.3 |
| 20260504204518 | 58 | 170 | 0.0 | 1.0 | 0.01 | 0.02 | 0.02 | 89 | 1011.3 |
| 20260504204513 | 58 | 170 | 0.0 | 0.0 | 0.00 | 0.02 | 0.02 | 90 | 1011.3 |
| 20260504203501 | 58 | 170 | 0.0 | 1.0 | 0.01 | 0.02 | 0.02 | 89 | 1011.3 |
| 20260504202952 | 58 | 170 | 1.0 | 3.0 | 0.01 | 0.02 | 0.02 | 89 | 1011.3 |
| 20260504202443 | 58 | 170 | 1.0 | 3.0 | 0.01 | 0.02 | 0.02 | 89 | 1011.3 |
| 20260504201935 | 58 | 185 | 0.0 | 3.0 | 0.01 | 0.02 | 0.02 | 89 | 1011.3 |
| 20260504201430 | 58 | 181 | 0.0 | 3.0 | 0.01 | 0.02 | 0.02 | 89 | 1011.2 |
| 20260504201021 | 58 | 162 | 0.0 | 3.0 | 0.01 | 0.02 | 0.02 | 89 | 1011.2 |
| 20260504200511 | 58 | 165 | 0.0 | 3.0 | 0.01 | 0.02 | 0.02 | 89 | 1011.1 |
| 20260504200004 | 58 | 156 | 0.0 | 2.0 | 0.01 | 0.03 | 0.02 | 89 | 1011.0 |
| 20260504195503 | 58 | 183 | 0.0 | 0.0 | 0.01 | 0.03 | 0.02 | 90 | 1011.1 |
| 20260504195457 | 58 | 156 | 0.0 | 2.0 | 0.01 | 0.03 | 0.02 | 90 | 1011.1 |
| 20260504194444 | 59 | 158 | 0.0 | 1.0 | 0.01 | 0.03 | 0.02 | 90 | 1011.1 |
| 20260504193944 | 59 | 177 | 2.0 | 5.0 | 0.00 | 0.02 | 0.02 | 89 | 1011.1 |
| 20260504193938 | 59 | 143 | 1.0 | 3.0 | 0.00 | 0.02 | 0.02 | 89 | 1011.0 |
| 20260504192928 | 59 | 143 | 0.0 | 3.0 | 0.00 | 0.02 | 0.02 | 90 | 1011.0 |
| 20260504192923 | 59 | 160 | 1.0 | 5.0 | 0.00 | 0.02 | 0.02 | 90 | 1011.1 |
| 20260504192006 | 59 | 161 | 0.0 | 0.0 | 0.00 | 0.02 | 0.02 | 90 | 1010.9 |
| 20260504191500 | 60 | 171 | 0.0 | 0.0 | 0.00 | 0.02 | 0.02 | 90 | 1010.9 |
| 20260504190951 | 60 | 131 | 0.0 | 0.0 | 0.00 | 0.02 | 0.02 | 89 | 1010.9 |
| 20260504190451 | 60 | 131 | 0.0 | 0.0 | 0.00 | 0.02 | 0.02 | 89 | 1010.9 |
| 20260504190444 | 60 | 131 | 0.0 | 0.0 | 0.00 | 0.02 | 0.02 | 89 | 1010.9 |
| 20260504185938 | 60 | 131 | 0.0 | 0.0 | 0.00 | 0.02 | 0.02 | 89 | 1010.9 |
| 20260504184921 | 60 | 108 | 0.0 | 0.0 | 0.00 | 0.02 | 0.02 | 89 | 1010.9 |
| 20260504184413 | 60 | 89 | 0.0 | 0.0 | 0.00 | 0.02 | 0.02 | 88 | 1010.9 |
| 20260504183907 | 60 | 122 | 0.0 | 0.0 | 0.00 | 0.02 | 0.02 | 88 | 1010.9 |
| 20260504183402 | 60 | 122 | 0.0 | 0.0 | 0.00 | 0.02 | 0.02 | 88 | 1010.8 |
| 20260504182952 | 60 | 133 | 0.0 | 2.0 | 0.00 | 0.02 | 0.02 | 87 | 1010.8 |
| 20260504182444 | 60 | 115 | 0.0 | 2.0 | 0.00 | 0.02 | 0.02 | 87 | 1010.8 |
| 20260504181934 | 60 | 133 | 0.0 | 7.0 | 0.00 | 0.02 | 0.02 | 87 | 1010.7 |
| 20260504181427 | 60 | 139 | 1.0 | 7.0 | 0.00 | 0.02 | 0.02 | 87 | 1010.7 |
| 20260504180915 | 61 | 98 | 3.0 | 7.0 | 0.00 | 0.02 | 0.02 | 86 | 1010.6 |
| 20260504180409 | 61 | 160 | 3.0 | 7.0 | 0.00 | 0.02 | 0.02 | 86 | 1010.6 |
| 20260504175903 | 61 | 139 | 3.0 | 9.0 | 0.00 | 0.02 | 0.02 | 85 | 1010.6 |
| 20260504175354 | 61 | 152 | 4.0 | 9.0 | 0.00 | 0.02 | 0.02 | 84 | 1010.7 |
| 20260504174850 | 62 | 185 | 4.0 | 8.0 | 0.00 | 0.02 | 0.02 | 84 | 1010.6 |
| 20260504174437 | 62 | 183 | 4.0 | 9.0 | 0.00 | 0.02 | 0.02 | 83 | 1010.6 |
| 20260504173927 | 62 | 93 | 4.0 | 9.0 | 0.00 | 0.02 | 0.02 | 83 | 1010.7 |